SM5FGQ-2 Weather Reports


time (UTC)temp
F
wind
direction
speed
knots
gust
knots
rain 1hr
in
rain 24hr
in
rain mn
in
humidity
%
barometer
mb
20260508000048 34 180 0.0 0.9 0.00 0.00 0.00 68 1017.9
20260507233038 35 180 0.0 1.7 0.00 0.00 0.00 66 1017.6
20260507230029 35 180 0.0 1.7 0.00 0.00 0.00 62 1017.3
20260507223102 37 180 0.0 2.6 0.00 0.00 0.00 60 1017.1
20260507220110 38 180 0.0 1.7 0.00 0.00 0.00 57 1016.9
20260507213102 39 180 0.0 1.7 0.00 0.00 0.00 52 1016.8
20260507210051 41 180 0.0 2.6 0.00 0.00 0.00 50 1016.4
20260507203042 42 180 0.0 1.7 0.00 0.00 0.00 47 1016.0
20260507200031 43 180 0.9 2.6 0.00 0.00 0.00 45 1015.6
20260507193022 45 180 0.0 2.6 0.00 0.00 0.00 39 1015.1
20260507190112 48 180 0.0 1.7 0.00 0.00 0.00 33 1014.7
20260507183104 51 180 0.9 1.7 0.00 0.00 0.00 31 1014.4
20260507180115 53 180 0.9 2.6 0.00 0.00 0.00 29 1014.1
20260507173043 56 143 1.7 5.2 0.00 0.00 0.00 27 1013.6
20260507170034 59 159 1.7 6.1 0.00 0.00 0.00 28 1013.2
20260507163026 61 159 2.6 7.8 0.00 0.00 0.00 30 1012.9
20260507160136 61 190 2.6 5.2 0.00 0.00 0.00 30 1012.8
20260507153106 60 191 2.6 7.8 0.00 0.00 0.00 30 1012.4
20260507150057 60 145 2.6 7.0 0.00 0.00 0.00 29 1012.3
20260507143047 60 156 2.6 6.1 0.00 0.00 0.00 30 1012.1
20260507140038 61 149 2.6 7.8 0.00 0.00 0.00 30 1012.0
20260507133027 61 342 4.3 10.4 0.00 0.00 0.00 31 1011.8
20260507130017 62 307 3.5 8.7 0.00 0.00 0.00 30 1011.8
20260507123108 61 312 2.6 5.2 0.00 0.00 0.00 32 1011.7
20260507120100 60 291 1.7 6.1 0.00 0.00 0.00 33 1011.6
20260507113049 59 311 1.7 4.3 0.00 0.00 0.00 34 1011.6
20260507110041 59 307 0.9 5.2 0.00 0.00 0.00 35 1011.5
20260507103029 60 244 1.7 6.1 0.00 0.00 0.00 35 1011.4
20260507100100 60 185 1.7 5.2 0.00 0.00 0.00 35 1011.3
20260507093109 59 230 1.7 6.1 0.00 0.00 0.00 35 1011.3
20260507090100 58 156 1.7 6.1 0.00 0.00 0.00 35 1011.3
20260507083112 58 172 1.7 4.3 0.00 0.00 0.00 35 1011.1
20260507080040 61 171 1.7 5.2 0.00 0.00 0.00 32 1011.0
20260507073111 69 151 1.7 4.3 0.00 0.00 0.00 29 1011.0
20260507070021 66 180 1.7 4.3 0.00 0.00 0.00 34 1010.9
20260507063111 55 180 0.9 2.6 0.00 0.01 0.00 55 1010.9
20260507060123 42 193 0.9 3.5 0.00 0.01 0.00 76 1010.8
20260507053052 38 162 0.9 2.6 0.00 0.01 0.00 84 1010.8
20260507050042 33 135 0.9 2.6 0.00 0.01 0.00 85 1010.7
20260507043032 31 135 0.9 1.7 0.00 0.01 0.00 84 1010.4
20260507040022 30 135 0.9 1.7 0.00 0.01 0.00 82 1010.3
20260507033113 29 135 0.0 1.7 0.00 0.01 0.00 81 1010.2
20260507030104 29 135 0.9 1.7 0.00 0.01 0.00 80 1010.3
20260507023055 29 135 0.0 2.6 0.00 0.01 0.00 80 1010.1
20260507020046 29 135 0.9 2.6 0.00 0.01 0.00 79 1010.1
20260507013039 30 135 0.9 1.7 0.00 0.01 0.00 77 1010.1
20260507010028 30 135 0.9 1.7 0.00 0.01 0.00 74 1010.1
20260507003037 32 135 0.9 1.7 0.00 0.01 0.00 73 1010.1